Regional Weather Roundup
Issued by NWS

Home | Current Version | Previous Version | Text Only | Print | Product List | Glossary On
Versions: 1 2 3 4 5 6 7 8 9 10 11 12 13 14 15 16 17 18 19 20 21 22 23 24 25 26 27 28 29 30 31 32 33 34 35 36 37 38 39 40 41 42 43 44 45 46 47 48 49 50
000
ASUS42 KTBW 201317
RWRFL
FLORIDA REGIONAL WEATHER ROUNDUP
NATIONAL WEATHER SERVICE TAMPA BAY RUSKIN FL
900 AM EDT THU JUL 20 2017

NOTE: "FAIR" INDICATES FEW OR NO CLOUDS BELOW 12,000 FEET WITH NO
SIGNIFICANT WEATHER AND/OR OBSTRUCTIONS TO VISIBILITY.

FLZ001>010-012>015-112-114-115-201400-
PANHANDLE FLORIDA

CITY           SKY/WX    TMP DP  RH WIND       PRES   REMARKS
PENSACOLA      SUNNY     85  76  74 NW8       30.10R
PENSACOLA NAS  MOSUNNY   81  77  88 NW6       30.09S
MILTON NAS     MOSUNNY   81  77  88 NW6       30.10S
CRESTVIEW      SUNNY     82  76  81 N3        30.11R
DUKE FIELD     FAIR      80  76  86 NW6       30.09S
VALPARAISO     MOSUNNY   82  76  83 NW7       30.09R
MARY ESTHER    SUNNY     82  82  98 NW7       30.08R HX  96
PANAMA CITY    FAIR      81  76  84 NW3       30.09R
TYNDALL AFB    PTSUNNY   82  79  92 CALM      30.09S
APALACHICOLA   SUNNY     83  81  94 N3        30.10R HX  97

STATION/POSITION SKY/WX   TEMP    WIND        PRES    WAVE   SWELL
                          AIR SEA DIR/SP/G            HT/PER HT/PER
                          (F)     (DEG/KT/KT) (MB)    (FT/S) (FT/S)
30.1N   87.6W              83 86  330/  8/ 10 1019.0R   1
29.2N   88.2W              84 84  340/  8/ 10 1019.6R   1
28.8N   86.0W              83 83  330/  6/  6 1019.4R   1
PANAMA CITY BEAC           81     290/  5/  8 1019.5R
TOWER C          NOT AVBL
28.5N   84.5W              84 87  340/  6/  8 1019.2R   1

$$
FLZ011-016>038-118-127-128-134-139-239-201400-
NORTH FLORIDA

CITY           SKY/WX    TMP DP  RH WIND       PRES   REMARKS
MARIANNA       SUNNY     82  78  88 CALM      30.09R
TALLAHASSEE    MOSUNNY   81  76  84 CALM      30.09R
PERRY          SUNNY     80  76  87 SW3       30.10S
LIVE OAK       SUNNY     79  79 100 CALM      30.11R
CROSS CITY     SUNNY     79  73  83 CALM      30.14S
LAKE CITY      FAIR      77  75  94 SW3       30.10S
GAINESVILLE    SUNNY     78  73  84 SW7       30.13R
WILLISTON      SUNNY     77  77 100 CALM      30.10S
PALATKA        FAIR      77  77 100 CALM      30.11R
MAYPORT NAS    MOSUNNY   81  74  79 NW3       30.10R
JACKSONVILLE   MOSUNNY   79  74  84 W3        30.09R
JAX NAS        MOSUNNY   80  74  81 CALM      30.10R
JAX CECIL      SUNNY     79  75  89 CALM      30.10R
FERNANDINA BEA FAIR      82  73  74 NW3       30.08S
ST AUGUSTINE   SUNNY     80  74  81 CALM      30.11R
PALM COAST     SUNNY     79  75  89 W6        30.10S

STATION/POSITION SKY/WX   TEMP    WIND        PRES    WAVE   SWELL
                          AIR SEA DIR/SP/G            HT/PER HT/PER
                          (F)     (DEG/KT/KT) (MB)    (FT/S) (FT/S)
SHELL POINT      NOT AVBL
KEATON BEACH               82     260/  1/  2 1018.9R
CEDAR KEY                  82     130/  2/  2 1019.5R
FERNANDINA                 82 82  270/  2/  4 1019.9R
30.7N   81.3W                 81                N/A     2/ 9
MAYPORT                    79 79  310/  4/  5 1019.6R
31.4N   80.9W              81 82  270/  8/  8 1018.7R   2/ 9   2/ 9
ST AUGUSTINE               81 80  230/  3/  3 1019.7R

$$
FLZ040-043>046-052-053-057-058-063-144-201400-
INTERIOR CENTRAL FLORIDA

CITY           SKY/WX    TMP DP  RH WIND       PRES   REMARKS
OCALA          SUNNY     77  74  90 CALM      30.11R
THE VILLAGES     N/A     79  79 100 CALM      30.01S
LEESBURG       SUNNY     81  76  84 CALM      30.11R
SANFORD        SUNNY     80  75  84 CALM      30.11R
ORLANDO EXEC   SUNNY     81  77  89 VRB3      30.11R
ORLANDO INTL   MOSUNNY   78  77  96 CALM      30.11R
KISSIMMEE      FOG       79  75  89 CALM      30.12R VSB 1
WINTER HAVEN   MOSUNNY   79  74  84 CALM      30.12R
LAKELAND       MOSUNNY   79  77  94 CALM      30.12R
BARTOW         PTSUNNY   75 N/A N/A CALM      30.12R
SEBRING        FAIR      80  76  88 CALM      30.10S
OKEECHOBEE     SUNNY     79  75  89 CALM      30.11R

$$
FLZ041-047-054-059-064-141-147-201400-
EAST CENTRAL FLORIDA

CITY           SKY/WX    TMP DP  RH WIND       PRES   REMARKS
ORMOND BEACH   SUNNY     77  73  88 W6        30.11
DAYTONA BEACH  MOSUNNY   81  76  84 VRB5      30.11R
DELAND         SUNNY     79  75  89 SW5       30.10S
NEW SMYRNA BEA SUNNY     81  73  78 SW6       30.11R
TITUSVILLE     SUNNY     81  79  94 CALM      30.10R
CAPE CANAVERAL PTSUNNY   85  79  83 W3        30.09R HX  98
PATRICK AFB    MOSUNNY   82  77  84 W3        30.10R
MELBOURNE      MOSUNNY   82  77  84 W5        30.10R
VERO BEACH     SUNNY     81  78  91 CALM      30.11R
FT PIERCE      SUNNY     82  79  90 CALM      30.11R
STUART         MOSUNNY   82  81  94 W5        30.12R HX  95

STATION/POSITION SKY/WX   TEMP    WIND        PRES    WAVE   SWELL
                          AIR SEA DIR/SP/G            HT/PER HT/PER
                          (F)     (DEG/KT/KT) (MB)    (FT/S) (FT/S)
28.5N   80.2W              82 83  190/  2/  2 1020.6R   2/ 8   2/ 8
28.9N   78.5W              80 85  230/  8/ 12 1019.5R   3/ 8   3/ 8
TRIDENT PIER               84 83  300/  1/  2 1020.8R
28.4N   80.5W                 83                N/A     1/ 9
27.5N   80.2W                 83                N/A     2/ 8

$$
FLZ050-056-061-142-242-148-248-149-249-151-251-155-255-
160-260-201400-
WEST CENTRAL FLORIDA

CITY           SKY/WX    TMP DP  RH WIND       PRES   REMARKS
CRYSTAL RIVER  FAIR      79  73  83 CALM      30.10S
INVERNESS      FAIR      75  75 100 CALM      30.11S
BROOKSVILLE    CLOUDY    76  75  97 CALM      30.12R
CLEARWATER AIR FAIR      81  77  89 S3        30.10R
ST PETE CLEARW PTSUNNY   83  76  79 CALM      30.10R
TAMPA INTL     MOSUNNY   82  76  81 W5        30.11R
TAMPA EXEC     SUNNY     81  75  83 CALM      30.12R
PLANT CITY     SUNNY     81  77  89 CALM      30.13R
MACDILL AFB    SUNNY     83  81  91 SW3       30.10R HX  97
PETER O KNIGHT CLOUDY    82  82 100 S3        30.11R HX  97
ST PETERSBURG  LGT RAIN  83  77  82 CALM      30.09R
SARASOTA       MOSUNNY   82  76  81 CALM      30.09R
VENICE         FAIR      81  79  94 CALM      30.10R

STATION/POSITION SKY/WX   TEMP    WIND        PRES    WAVE   SWELL
                          AIR SEA DIR/SP/G            HT/PER HT/PER
                          (F)     (DEG/KT/KT) (MB)    (FT/S) (FT/S)
27.3N   84.2W                 87                N/A     1/ 4
CLEARWATER BEACH           82 87  110/  3/  5 1019.4R
MIDDLE TAMPA BAY           83     190/  4/  5 1019.4R
VENICE                     78 88  110/  4/  5 1019.2R

$$
FLZ066-069-070-075>078-162-262-165-265-201400-
SOUTHWEST FLORIDA AND KEYS

CITY           SKY/WX    TMP DP  RH WIND       PRES   REMARKS
PUNTA GORDA    CLOUDY    82  76  81 CALM      30.11R
FT MYERS       CLOUDY    81  74  79 CALM      30.09S
SOUTHWEST INTL CLOUDY    83  72  69 SW6       30.11R
NAPLES         PTSUNNY   85  79  82 E5        30.09R HX  98
MARCO ISLAND   SUNNY     84  77  79 CALM      30.09R
IMMOKALEE      FAIR      82  77  83 CALM      30.11R
MARATHON       SUNNY     85  78  80 CALM      30.08R HX  96
KEY WEST NAS   MOSUNNY   86  79  79 S6        30.09R HX  99
KEY WEST INTL  MOSUNNY   86  76  71 SE7       30.09R HX  96

STATION/POSITION SKY/WX   TEMP    WIND        PRES    WAVE   SWELL
                          AIR SEA DIR/SP/G            HT/PER HT/PER
                          (F)     (DEG/KT/KT) (MB)    (FT/S) (FT/S)
NAPLES                        88   90/  2/  4 1019.1R
DRY TORTUGAS               87     190/  2/  3 1019.2R
SAND KEY                   84     160/  7/  8 1019.3R

$$
FLZ067-068-071>074-168-172>174-201400-
SOUTHEAST FLORIDA

CITY           SKY/WX    TMP DP  RH WIND       PRES   REMARKS
W PALM BEACH   PTSUNNY   82  77  84 NW3       30.11R
BOCA RATON     MOSUNNY   82  75  78 CALM        N/A
FT LAUDER-EXEC MOSUNNY   81  76  84 CALM      30.09R
FT LAUDERDALE  PTSUNNY   81  79  94 CALM      30.09R
POMPANO BEACH  MOSUNNY   82  75  79 CALM      30.10R
PEMBROKE PINES SUNNY     85  78  80 W3        30.11R HX  96
OPA LOCKA      SUNNY     85  80  85 NW3       30.10R HX  99
MIAMI          PTSUNNY   86  76  71 S3        30.10R HX  96
WEST KENDALL   SUNNY     87  77  72 CALM      30.09R HX  99
HOMESTEAD      SUNNY     84  79  84 CALM      30.09R HX  96

STATION/POSITION SKY/WX   TEMP    WIND        PRES    WAVE   SWELL
                          AIR SEA DIR/SP/G            HT/PER HT/PER
                          (F)     (DEG/KT/KT) (MB)    (FT/S) (FT/S)
PORT EVERGLADES            83     320/  4/  5 1018.9R
VIRGINIA KEY               85 87  230/  5/  6 1018.3R
LAKE WORTH                        320/  3/  4   N/A
FOWEY ROCKS                86 86  170/  8/ 10 1019.1R
SETTLEMENT POINT           79     240/ 10/ 12 1020.1R

$$




USA.gov is the U.S. government's official web portal to all federal, state and local government web resources and services.